SKYNET 5C

Last updated on Thu Nov 21 2024 00:02:41 GMT+0000 (Coordinated Universal Time)

1 33055U 08030A 24325.29175986 -.00000138 00000+0 00000+0 0 9991 2 33055 2.3106 83.6754 0004665 168.7532 254.6032 1.00271770 60201
UTC large
Height (km)
Speed (km/s)
/
Latitude / Longitude
Inclination (degrees)
Orbital Period (minutes)
Azimuth
Elevation
Range (km)
Doppler Factor

Next 0 passes for location: London (51.5072 / 0.1276)

Sorry there are no passes over London.